Cosmos 1184 Rocket - Orbit

View from above orbital plane
View from above orbital plane
View from above satellite
View from above satellite

Ground track
Ground track

The orbit data is extracted from the following two-line orbital elements,

1 11822U 80044B   13169.17937609  .00002803  00000-0  10749-3 0  5849
2 11822 081.2383 159.3623 0019678 336.0386 023.9930 15.25977479808514
Epoch (UTC): 18 June 2013 04:18:18
Eccentricity: 0.0019678
inclination: 81.2383°
perigee height: 474 km
apogee height: 501 km
right ascension of ascending node: 159.3623°
argument of perigee: 336.0386°
revolutions per day: 15.25977479
mean anomaly at epoch: 23.9930°
orbit number at epoch: 80851

The dashed part of the orbit path shows where the satellite is in the earth's shadow,  

Developed and maintained by Chris Peat, Heavens-Above GmbH. Please read the updated FAQ before sending e-mail. Imprint. DLR